World > North America > United States > New Jersey

Colonia, New Jersey Regional Weather

Lat: 40.57N, Lon: 74.3W
Wx Zone: NJZ012
Feedback

Colonia, NJ Regional Weather

Expires:201910211600;;053773
ASUS41 KPHI 211512
RWRPHI

REGIONAL WEATHER ROUNDUP
NATIONAL WEATHER SERVICE MOUNT HOLLY NJ
1100 AM EDT MON OCT 21 2019

NOTE:  "FAIR" INDICATES FEW OR NO CLOUDS BELOW 12,000 FEET WITH NO
SIGNIFICANT WEATHER AND/OR OBSTRUCTIONS TO VISIBILITY.

 * = STATION DOES NOT REPORT PRECIPITATION (E.G. RAIN, SNOW, ETC.) 
        OR FOG.


NJZ001>014-211600-
NORTHERN NEW JERSEY
  
CITY           SKY/WX    TMP DP  RH WIND       PRES   REMARKS
SUSSEX         FAIR      52  47  83 NE8       30.11S                  
ANDOVER*         N/A     53  47  79 NE6       30.12R                  
MORRISTOWN     SUNNY     59  50  72 NE10G18   30.09R                  
NEWARK         FAIR      60  47  61 N10       30.08R                  
TETERBORO      FAIR      60  46  59 N9        30.07S                  
CALDWELL       FAIR      60  48  64 NW8       30.09R                  
SOMERVILLE     FAIR      62  44  51 NE8       30.07R                  

$$

SKY/WX - Weather  TMP - Temperature  DP - Dew Point  RH - Relative Humidity
WIND - Wind Direction/Speed PRES - Barometric Pressure VSB - Visibility
WCI - Wind Chill Index E13G22 Wind - East Wind 13 mph/Gusts of 22 mph